OE2SWM Weather Reports


time (UTC)temp
C
wind
direction
speed
KPH
gust
KPH
rain 1hr
cm
rain 24hr
cm
rain mn
cm
humidity
%
barometer
mb
20260505224000 6 0 0.0 0.0 0.00 0.00 0.00 84 966.0
20260505223000 6 0 0.0 0.0 0.00 0.00 0.00 80 966.0
20260505222000 7 0 0.0 0.0 0.00 0.00 0.00 81 965.0
20260505221000 7 0 0.0 0.0 0.00 0.00 0.00 80 965.0
20260505220000 7 0 0.0 0.0 0.00 0.00 0.00 79 966.0
20260505215000 7 0 0.0 0.0 0.00 0.00 0.00 80 966.0
20260505214000 7 0 0.0 0.0 0.00 0.00 0.00 80 965.0
20260505213000 7 0 0.0 0.0 0.00 0.00 0.00 79 965.0
20260505212000 8 0 0.0 0.0 0.00 0.00 0.00 78 966.0
20260505211000 8 0 0.0 0.0 0.00 0.00 0.00 79 965.0
20260505210000 8 0 0.0 0.0 0.00 0.00 0.00 78 965.0
20260505205000 8 0 0.0 0.0 0.00 0.00 0.00 75 965.0
20260505204000 10 0 0.0 0.0 0.00 0.00 0.00 74 965.0
20260505203000 10 0 0.0 0.0 0.00 0.00 0.00 73 965.0
20260505202000 10 0 0.0 0.0 0.00 0.00 0.00 71 965.0
20260505201000 10 0 0.0 0.0 0.00 0.00 0.00 69 965.0
20260505200000 11 0 0.0 0.0 0.00 0.00 0.00 67 965.0
20260505195000 12 0 0.0 0.0 0.00 0.00 0.00 64 965.0
20260505194000 12 0 0.0 0.0 0.00 0.00 0.00 63 965.0
20260505193000 12 0 0.0 0.0 0.00 0.00 0.00 62 964.0
20260505192000 12 0 0.0 0.0 0.00 0.00 0.00 61 964.0
20260505191000 12 0 0.0 0.0 0.00 0.00 0.00 62 964.0
20260505190000 12 0 0.0 0.0 0.00 0.00 0.00 62 964.0
20260505185000 13 0 0.0 0.0 0.00 0.00 0.00 61 964.0
20260505184000 13 0 0.0 0.0 0.00 0.00 0.00 60 964.0
20260505183000 13 0 0.0 0.0 0.00 0.00 0.00 60 964.0
20260505182000 13 0 0.0 0.0 0.00 0.00 0.00 60 964.0
20260505181000 15 0 0.0 0.0 0.00 0.00 0.00 58 964.0
20260505180000 15 0 0.0 0.0 0.00 0.00 0.00 57 964.0
20260505175000 15 0 0.0 0.0 0.00 0.00 0.00 56 964.0
20260505174000 15 0 0.0 0.0 0.00 0.00 0.00 56 964.0
20260505173000 15 0 0.0 0.0 0.00 0.00 0.00 53 964.0
20260505172000 16 0 0.0 0.0 0.00 0.00 0.00 51 964.0
20260505171000 17 0 0.0 0.0 0.00 0.00 0.00 51 964.0
20260505170000 16 0 0.0 0.0 0.00 0.00 0.00 53 964.0
20260505165000 16 0 0.0 0.0 0.00 0.00 0.00 53 964.0
20260505164000 16 0 0.0 0.0 0.00 0.00 0.00 53 964.0
20260505163000 16 0 0.0 0.0 0.00 0.00 0.00 53 964.0
20260505162000 16 0 0.0 0.0 0.00 0.00 0.00 52 964.0
20260505161000 17 0 0.0 0.0 0.00 0.00 0.00 50 964.0
20260505153000 17 0 0.0 0.0 0.00 0.00 0.00 51 964.0
20260505152000 17 0 0.0 0.0 0.00 0.00 0.00 51 964.0
20260505151000 17 0 0.0 0.0 0.00 0.00 0.00 51 964.0
20260505125000 20 0 0.0 0.0 0.00 0.00 0.00 44 964.0
20260505124000 20 0 0.0 0.0 0.00 0.00 0.00 43 964.0
20260505123000 22 0 0.0 0.0 0.00 0.00 0.00 41 964.0
20260505122000 22 0 0.0 0.0 0.00 0.00 0.00 42 964.0
20260505121000 22 0 0.0 0.0 0.00 0.00 0.00 42 964.0
20260505120000 21 0 0.0 0.0 0.00 0.00 0.00 44 964.0
20260505115000 21 0 0.0 0.0 0.00 0.00 0.00 43 964.0
20260505114000 21 0 0.0 0.0 0.00 0.00 0.00 45 964.0
20260505113000 20 0 0.0 0.0 0.00 0.00 0.00 43 964.0
20260505112000 21 0 0.0 0.0 0.00 0.00 0.00 43 964.0
20260505111000 20 0 0.0 0.0 0.00 0.00 0.00 42 964.0
20260505102000 20 0 0.0 0.0 0.00 0.00 0.00 45 965.0
20260505101000 20 0 0.0 0.0 0.00 0.00 0.00 45 965.0
20260505100000 20 0 0.0 0.0 0.00 0.00 0.00 46 965.0
20260505095000 20 0 0.0 0.0 0.00 0.00 0.00 46 965.0
20260505094000 20 0 0.0 0.0 0.00 0.00 0.00 46 965.0
20260505093000 18 0 0.0 0.0 0.00 0.00 0.00 47 965.0
20260505092000 18 0 0.0 0.0 0.00 0.00 0.00 46 965.0
20260505091000 18 0 0.0 0.0 0.00 0.00 0.00 47 965.0
20260505090000 18 0 0.0 0.0 0.00 0.00 0.00 49 965.0
20260505085000 18 0 0.0 0.0 0.00 0.00 0.00 49 965.0
20260505084000 17 0 0.0 0.0 0.00 0.00 0.00 49 965.0
20260505083000 17 0 0.0 0.0 0.00 0.00 0.00 48 965.0
20260505082000 17 0 0.0 0.0 0.00 0.00 0.00 48 965.0
20260505081000 17 0 0.0 0.0 0.00 0.00 0.00 50 965.0
20260505080000 17 0 0.0 0.0 0.00 0.00 0.00 51 966.0
20260505075000 16 0 0.0 0.0 0.00 0.00 0.00 50 965.0
20260505074000 16 0 0.0 0.0 0.00 0.00 0.00 52 966.0
20260505073000 16 0 0.0 0.0 0.00 0.00 0.00 53 966.0
20260505072000 15 0 0.0 0.0 0.00 0.00 0.00 54 966.0
20260505071000 15 0 0.0 0.0 0.00 0.00 0.00 53 966.0
20260505070000 15 0 0.0 0.0 0.00 0.00 0.00 55 966.0
20260505065000 15 0 0.0 0.0 0.00 0.00 0.00 60 966.0
20260505064000 13 0 0.0 0.0 0.00 0.00 0.00 61 966.0
20260505063000 12 0 0.0 0.0 0.00 0.00 0.00 62 966.0
20260505062000 13 0 0.0 0.0 0.00 0.00 0.00 60 966.0
20260505061000 12 0 0.0 0.0 0.00 0.00 0.00 62 966.0
20260505060000 13 0 0.0 0.0 0.00 0.00 0.00 65 966.0
20260505055000 11 0 0.0 0.0 0.00 0.00 0.00 69 966.0
20260505054000 12 0 0.0 0.0 0.00 0.00 0.00 64 966.0
20260505053000 15 0 0.0 0.0 0.00 0.00 0.00 56 966.0
20260505052000 21 0 0.0 0.0 0.00 0.00 0.00 44 966.0
20260505051000 21 0 0.0 0.0 0.00 0.00 0.00 46 966.0
20260505041000 5 0 0.0 0.0 0.00 0.00 0.00 88 966.0
20260505040000 5 0 0.0 0.0 0.00 0.00 0.00 89 967.0
20260505035000 5 0 0.0 0.0 0.00 0.00 0.00 86 967.0
20260505034000 5 0 0.0 0.0 0.00 0.00 0.00 86 967.0
20260505033000 5 0 0.0 0.0 0.00 0.00 0.00 86 967.0
20260505032000 5 0 0.0 0.0 0.00 0.00 0.00 85 967.0
20260505031000 5 0 0.0 0.0 0.00 0.00 0.00 84 967.0
20260505030000 6 0 0.0 0.0 0.00 0.00 0.00 85 967.0
20260505025000 6 0 0.0 0.0 0.00 0.00 0.00 85 967.0
20260505024000 6 0 0.0 0.0 0.00 0.00 0.00 86 967.0
20260505023000 6 0 0.0 0.0 0.00 0.00 0.00 85 967.0
20260505022000 6 0 0.0 0.0 0.00 0.00 0.00 85 967.0
20260505021000 6 0 0.0 0.0 0.00 0.00 0.00 85 967.0
20260505020000 6 0 0.0 0.0 0.00 0.00 0.00 84 967.0
20260505015000 6 0 0.0 0.0 0.00 0.00 0.00 85 967.0
20260505014000 6 0 0.0 0.0 0.00 0.00 0.00 85 967.0
20260505013000 6 0 0.0 0.0 0.00 0.00 0.00 85 967.0
20260505012000 6 0 0.0 0.0 0.00 0.00 0.00 84 967.0
20260505011000 6 0 0.0 0.0 0.00 0.00 0.00 82 967.0
20260505010000 6 0 0.0 0.0 0.00 0.00 0.00 83 967.0
20260505005000 7 0 0.0 0.0 0.00 0.00 0.00 80 967.0
20260505004000 7 0 0.0 0.0 0.00 0.00 0.00 80 967.0
20260505003000 7 0 0.0 0.0 0.00 0.00 0.00 80 967.0
20260505002000 7 0 0.0 0.0 0.00 0.00 0.00 79 968.0
20260505001000 8 0 0.0 0.0 0.00 0.00 0.00 76 968.0
20260505000000 8 0 0.0 0.0 0.00 0.00 0.00 75 968.0
20260504235000 8 0 0.0 0.0 0.00 0.00 0.00 74 967.0
20260504234000 10 0 0.0 0.0 0.00 0.00 0.00 72 968.0
20260504233000 10 0 0.0 0.0 0.00 0.00 0.00 73 968.0
20260504232000 10 0 0.0 0.0 0.00 0.00 0.00 72 968.0
20260504231000 10 0 0.0 0.0 0.00 0.00 0.00 71 968.0
20260504230000 10 0 0.0 0.0 0.00 0.00 0.00 71 968.0
20260504225000 10 0 0.0 0.0 0.00 0.00 0.00 67 968.0